Location: Newark
(34.6283°N, 36.0776°E)
Time: 04:43:25
(UTC+00:00)

A-11 Canister half - Pass Details

Date: 23 September 2019
Orbit: 1527 x 1682 km, 47.3° (Epoch: 15 October)

Event Time Altitude Azimuth Distance (km) Brightness Sun altitude
Rises 09:38:54 0° 292° (WNW) 4,852 11.5 55.2°
Reaches altitude 10° 09:43:14 10° 276° (W) 3,887 11.3 55.2°
Maximum altitude 09:49:29 19° 236° (SW) 3,253 11.4 55.0°
Drops below altitude 10° 09:55:51 10° 196° (SSW) 3,926 11.9 54.7°
Sets 10:00:19 0° 179° (S) 4,917 12.2 54.5°
